{"data":{"norad_id":65928,"epoch":"2026-09-20T22:16:00.103008Z","epoch_age_seconds":66106,"freshness":"FRESH","line1":"1 65928U 25225U   26263.92777897  .00019564  00000+0  58861-3 0  9996","line2":"2 65928  53.1601 335.7175 0001162  75.8884 284.2248 15.34401833 54347","mean_motion":15.34401833,"eccentricity":0.0001162,"inclination_deg":53.1601,"raan_deg":335.7175,"arg_perigee_deg":75.8884,"mean_anomaly_deg":284.2248,"bstar":0.00058861,"rev_number":5434,"period_min":93.847645970585,"perigee_km":461.90288714739,"apogee_km":463.49269715309,"semimajor_km":6840.8347921502,"source":"CELESTRAK","updated_at":"2026-09-21T09:00:35.765914Z"}}